EW8280 Weather Reports


Display with metric or nautical units.
time (UTC)temp
F
wind
direction
speed
MPH
gust
MPH
rain 1hr
in
rain 24hr
in
rain mn
in
humidity
%
barometer
mb
20260505004544 61 200 0.0 7.0 0.01 0.11 0.11 73 998.2
20260505003007 63 37 0.0 3.0 0.00 0.10 0.10 80 996.4
20260505001550 62 17 0.0 2.0 0.02 0.10 0.10 84 996.2
20260505000034 62 38 0.0 0.0 0.09 0.10 0.10 83 996.0
20260504234552 62 19 0.0 1.0 0.10 0.10 0.10 81 996.4
20260504233028 64 74 0.0 4.0 0.10 0.10 0.10 79 996.9
20260504231504 69 5 0.0 3.0 0.07 0.07 0.07 68 996.8
20260504230048 71 19 0.0 1.0 0.01 0.01 0.01 59 996.4
20260504224510 72 30 0.0 9.0 0.00 0.00 0.00 51 996.7
20260504223047 75 14 0.0 4.0 0.00 0.00 0.00 44 996.5
20260504221522 78 205 0.0 3.0 0.00 0.00 0.00 36 996.4
20260504220101 80 192 0.0 5.0 0.00 0.00 0.00 35 996.4
20260504214533 81 5 0.0 4.0 0.00 0.00 0.00 35 996.6
20260504213006 81 9 0.0 1.0 0.00 0.00 0.00 34 996.6
20260504211544 80 175 0.0 2.0 0.00 0.00 0.00 35 996.8
20260504210011 80 204 0.0 5.0 0.00 0.00 0.00 34 997.2
20260504204543 79 201 0.0 1.0 0.00 0.00 0.00 35 997.4
20260504203013 78 236 0.0 4.0 0.00 0.00 0.00 37 997.5
20260504201549 78 209 0.0 6.0 0.00 0.00 0.00 37 997.8
20260504200019 78 51 0.0 8.0 0.00 0.00 0.00 40 997.9
20260504194555 78 5 0.0 3.0 0.00 0.00 0.00 40 997.9
20260504193027 77 194 0.0 3.0 0.00 0.00 0.00 44 997.9
20260504191608 76 40 0.0 4.0 0.00 0.00 0.00 44 998.0
20260504190030 76 161 0.0 2.0 0.00 0.00 0.00 46 998.4
20260504184502 75 319 0.0 5.0 0.00 0.00 0.00 48 998.7
20260504183031 75 16 0.0 2.0 0.00 0.00 0.00 48 998.8
20260504181504 75 289 0.0 2.0 0.00 0.00 0.00 47 999.0
20260504180037 74 46 0.0 2.0 0.00 0.00 0.00 46 999.1
20260504174510 74 5 0.0 5.0 0.00 0.00 0.00 45 999.3
20260504173042 73 215 0.0 3.0 0.00 0.00 0.00 45 999.3
20260504171513 72 168 0.0 2.0 0.00 0.00 0.00 45 999.6
20260504160104 69 15 0.0 1.0 0.00 0.00 0.00 43 1000.5
20260504081551 51 42 0.0 0.0 0.00 0.00 0.00 78 1002.3
20260504050010 53 42 0.0 1.0 0.00 0.00 0.00 73 1004.7
20260504044541 53 30 0.0 1.0 0.00 0.00 0.00 73 1004.7
20260504043015 53 34 0.0 1.0 0.00 0.00 0.00 72 1004.7
20260504041550 53 26 0.0 1.0 0.00 0.00 0.00 71 1004.7
20260504040022 54 30 0.0 2.0 0.00 0.00 0.00 70 1004.8
20260504034559 54 17 0.0 1.0 0.00 0.00 0.00 69 1004.9
20260504033037 54 44 0.0 1.0 0.00 0.00 0.00 68 1005.0
20260504031507 55 46 0.0 1.0 0.00 0.00 0.00 68 1005.2
20260504030042 55 77 0.0 1.0 0.00 0.00 0.00 67 1005.2
20260504024518 55 31 0.0 1.0 0.00 0.00 0.00 66 1005.1
20260504023054 55 55 0.0 2.0 0.00 0.00 0.00 66 1005.2
20260504021529 55 46 0.0 1.0 0.00 0.00 0.00 68 1005.2
20260504020106 54 34 0.0 1.0 0.00 0.00 0.00 69 1005.0
20260504014520 54 24 0.0 1.0 0.00 0.00 0.00 70 1004.8
20260504013057 54 32 0.0 1.0 0.00 0.00 0.00 70 1004.7
20260504011532 54 38 0.0 1.0 0.00 0.00 0.00 71 1004.8